Location: Unspecified
(0.0000°N, 0.0000°E)
Time: 08:09:25
(UTC+00:00)

Vanguard 3 - Visible Passes

Search period start: 30 August 2014 00:00
Search period end: 09 September 2014 00:00
Orbit: 508 x 3279 km, 33.4° (Epoch: 29 August)

Date Brightness Start Highest point End Pass type
(mag) Time Alt. Az. Time Alt. Az. Time Alt. Az.
01 Sep 10.7 18:18:34 10° N 18:19:26 10° N 18:20:16 10° N visible
01 Sep 10.1 20:33:22 10° NNW 20:37:05 14° N 20:37:05 14° N visible
02 Sep 10.2 19:19:41 10° NNW 19:23:38 12° N 19:27:00 10° NNE visible
02 Sep 10.4 21:32:50 10° NNW 21:33:58 13° NNW 21:33:58 13° NNW visible
03 Sep 9.8 20:19:29 10° NNW 20:26:08 20° NNE 20:26:08 20° NNE visible
04 Sep 10.1 19:05:21 10° NNW 19:12:34 16° NNE 19:18:03 10° NE visible
04 Sep 10.1 21:19:52 10° NW 21:23:05 20° NNW 21:23:05 20° NNW visible
05 Sep 9.5 20:06:01 10° NNW 20:15:19 27° NNE 20:15:19 27° NNE visible
06 Sep 9.9 18:51:36 10° NNW 19:01:23 21° NNE 19:07:34 12° ENE visible
06 Sep 9.7 21:07:00 10° NW 21:12:20 29° NW 21:12:20 29° NW visible
07 Sep 9.1 19:52:41 10° NW 20:04:04 36° NNE 20:04:38 36° NNE visible
07 Sep 10.7 22:08:59 10° WNW 22:09:23 11° WNW 22:09:23 11° WNW visible
08 Sep 9.8 18:38:02 10° NNW 18:50:04 27° NNE 18:56:58 14° ENE visible
08 Sep 9.3 20:54:11 10° NW 21:01:44 41° NW 21:01:44 41° NW visible
